Location: Sotillo
(41.2585°N, 3.6373°W)
Time: 06:07:56
(UTC+00:00)

Daily predictions for brighter satellites

Satellite Brightness Start Highest point End
(mag) Time Altitude Azimuth Time Altitude Azimuth Time Altitude Azimuth
Meteor 2-5 Rocket 4.2 20:09:53 10° SSW 20:15:41 71° W 20:21:25 10° N
Helios 1B rocket 3.4 20:12:45 10° SE 20:15:52 27° ENE 20:19:00 10° NNE
Meteor 2-17 Rocket 4.5 20:11:24 10° S 20:17:28 81° E 20:23:36 10° N
Cosmos 158 Rocket 4.5 20:15:19 10° NNW 20:20:05 57° WSW 20:24:49 10° S
Helios 1A 4.2 20:17:08 10° NE 20:20:11 21° E 20:23:13 10° SE
Cosmos 220 Rocket 3.9 20:16:22 10° NNW 20:20:37 83° ENE 20:24:51 10° SSE
Cosmos 1570 Rocket 4.1 20:18:24 10° NNW 20:23:41 70° ENE 20:28:53 10° SSE
Terra 2.7 20:19:32 10° SE 20:23:45 34° ENE 20:28:00 10° N
Cosmos 2034 Rocket 4.3 20:23:18 10° N 20:29:41 77° W 20:36:01 10° S
Cosmos 1634 Rocket 4.1 20:23:56 10° N 20:30:01 58° E 20:36:04 10° SSE
Cosmos 1606 2.2 20:27:31 10° N 20:30:36 79° W 20:33:38 10° S
Cosmos 1300 Rocket 4.2 20:29:22 10° NNW 20:33:38 56° W 20:37:50 10° S
Cosmos 1486 Rocket 4.0 20:28:40 10° S 20:33:54 73° ESE 20:39:11 10° NNE
USA 186 2.4 20:32:24 10° S 20:35:01 44° W 20:37:39 10° NNW
SPOT 5 3.2 20:30:58 10° S 20:36:12 79° WSW 20:41:32 10° NNW
Resurs 01 Rocket 4.2 20:38:39 10° SW 20:41:47 19° W 20:44:57 10° NW
TRACE 4.5 20:40:57 10° N 20:42:33 33° WNW 20:44:07 10° SW
ERS-1 Rocket 3.1 20:37:59 10° SSE 20:42:54 63° ENE 20:47:50 10° N
USA 245 4.5 20:40:44 13° SE 20:43:52 28° ENE 20:46:58 10° NNE
Cosmos 2297 3.7 20:40:36 10° S 20:46:09 64° ESE 20:51:45 10° NNE
Meteor 1-21 Rocket 4.5 20:41:00 10° SSE 20:46:26 49° E 20:51:48 10° NNE
Cosmos 2279 Rocket 4.2 20:40:43 10° N 20:46:49 54° E 20:52:36 11° SSE
MOS 1-B 4.3 20:41:16 10° SSE 20:47:01 81° ENE 20:52:49 10° NNW
Tsikada Rocket 4.4 20:41:48 10° SSW 20:48:08 73° W 20:54:35 10° N
Okean-O 2.7 20:46:07 12° SSE 20:50:09 61° ENE 20:54:29 10° N
Cosmos 1656 Rocket 4.1 20:46:47 10° SSW 20:52:18 66° WNW 20:57:48 10° NNE
Cosmos 1378 Rocket 3.5 20:48:23 10° S 20:52:36 60° E 20:56:50 10° NNE
COSMOS 2406 3.7 20:50:03 10° NNW 20:55:41 60° WSW 21:01:17 10° S
Okean O Rocket 1.6 20:52:29 10° SSE 20:56:50 84° W 21:01:14 10° NNW
Cosmos 1025 Rocket 3.9 20:54:32 16° SE 20:57:13 30° E 21:01:02 10° NNE
CZ-4B R/B 4.0 20:55:03 10° S 21:00:13 50° W 21:05:32 10° NNW
CZ-4 R/B 4.0 21:04:11 10° SW 21:06:10 14° W 21:08:11 10° WNW
In-Cosmos 22 Rocket 4.2 21:03:35 10° S 21:09:24 81° E 21:15:10 10° NNE
Cosmos 2082 Rocket 4.1 21:06:37 10° NW 21:11:14 26° WSW 21:15:50 10° SSW
Cosmos 1503 Rocket 4.2 21:10:59 10° SSW 21:16:07 74° WNW 21:21:18 10° NNE
Cosmos 2369 Rocket 2.5 21:15:42 10° SSW 21:21:22 70° WNW 21:27:04 10° NNE
Cosmos 1354 Rocket 4.0 21:20:24 10° SSW 21:25:37 86° WNW 21:30:53 10° NNE
ASTEX 1 3.3 21:24:25 10° NNE 21:29:15 65° E 21:32:11 23° S
SAR-Lupe-2 3.8 21:29:36 35° SE 21:30:47 53° ENE 21:34:17 10° N
DELTA 2 R/B (1) 3.6 21:28:26 10° WSW 21:33:50 58° SSE 21:38:43 13° E
ISS -0.9 21:32:10 10° NNW 21:34:16 15° N 21:36:20 10° NE
Cosmos 1340 Rocket 4.2 21:31:03 10° NNW 21:34:31 33° W 21:37:29 13° SSW
Ariane Rocket 3.1 21:32:58 28° SE 21:35:33 62° ENE 21:40:32 10° N
Tiangong -1.8 21:35:19 10° WSW 21:38:13 48° S 21:38:13 48° S
COBE Rocket 4.1 21:34:47 10° NNE 21:39:12 43° E 21:40:36 33° SE
Cosmos 1869 3.8 21:36:38 10° NNW 21:40:04 48° W 21:41:51 24° SSW
Okean 2 Rocket 3.1 21:36:23 10° N 21:40:45 77° W 21:42:59 28° S
CZ-4C R/B 1.5 21:39:14 10° SSW 21:43:20 89° E 21:48:27 10° NE
Cosmos 2151 Rocket 4.3 21:43:09 10° NNW 21:47:32 51° W 21:50:15 21° SSW
Cosmos 44 3.1 21:44:06 10° SW 21:48:23 74° WNW 21:52:46 10° NNE
Helios 1B rocket 4.5 21:46:50 10° SW 21:49:30 19° W 21:52:11 10° NW
Cosmos 1975 Rocket 3.6 21:53:28 37° ESE 21:53:51 38° E 21:57:51 10° NNE
Okean 1 Rocket 3.2 21:50:22 10° NNW 21:54:44 70° W 21:56:28 35° S
Nadezhda 4 Rocket 4.1 21:51:05 16° S 21:56:12 81° W 22:02:35 10° N
Cosmos 2221 Rocket 4.3 21:52:39 15° SSW 21:56:14 52° W 22:00:41 10° N
Terra 3.7 21:57:32 10° SSW 22:01:19 25° W 22:05:09 10° NW
Cosmos 2228 4.3 21:59:24 10° NNE 22:02:57 25° ENE 22:03:10 25° E
Cosmos 2285 Rocket 4.0 21:59:35 15° SSW 22:05:03 89° WNW 22:11:31 10° NNE
Cosmos 1867 3.5 22:02:46 26° SSW 22:05:48 66° ESE 22:11:14 10° NE
Cosmos 1455 Rocket 3.0 22:01:59 10° N 22:06:17 69° E 22:07:04 55° SE
SPOT 3 Rocket 3.8 22:04:07 30° S 22:06:35 62° WSW 22:11:45 10° NNW
Cosmos 2195 Rocket 4.4 22:03:24 29° S 22:06:42 81° E 22:12:57 10° N
BREEZE M DEB (TANK) 2.8 22:03:08 10° WSW 22:08:40 71° NNW 22:10:09 24° NE
Cosmos 2026 Rocket 3.8 22:12:17 36° S 22:14:57 78° E 22:21:01 10° N
NOSS 3-4 (A) 4.4 22:09:37 10° NW 22:16:32 53° WSW 22:20:31 29° S
NOSS 3-4 (C) 4.3 22:09:40 10° NW 22:16:35 54° WSW 22:20:31 30° S
Cosmos 1898 Rocket 3.4 22:16:19 45° S 22:17:53 73° ESE 22:23:06 10° NNE
PSLV R/B 4.1 22:22:11 45° W 22:22:11 45° W 22:24:56 10° NNW
Cosmos 1818 4.0 22:16:42 10° NW 22:21:57 50° WSW 22:23:29 39° SSW
Cosmos 1812 3.6 22:23:36 10° NNW 22:26:19 34° W 22:26:19 34° W
USA 81 3.9 22:25:23 52° SSE 22:26:38 75° E 22:31:54 10° N
Cosmos 1538 Rocket 4.0 22:21:18 10° NNW 22:26:42 86° WSW 22:28:01 53° SSE
ARIANE 5 R/B 4.0 22:30:39 26° ENE 22:30:58 26° ENE 22:34:39 10° NNE
Cosmos 1553 Rocket 4.4 22:28:12 10° N 22:34:19 51° ENE 22:35:55 41° ESE
BlueWalker 3 4.2 22:32:31 10° NNW 22:35:15 19° NNE 22:36:57 15° NE
Cosmos 1092 Rocket 4.1 22:35:06 35° SSW 22:37:56 78° W 22:44:17 10° N
Cosmos 1656 3.6 22:47:10 61° SSE 22:47:48 67° ESE 22:53:18 10° NNE
CZ-4C R/B 4.3 22:44:15 10° NNE 22:46:38 35° NE 22:46:38 35° NE
DELTA 2 DEB (DPAF) 3.9 22:44:00 10° NNE 22:47:30 70° N 22:47:30 70° N
RESURS DK-1 3.5 22:49:06 10° N 22:52:29 34° NE 22:52:29 34° NE
Cosmos 1544 Rocket 3.6 22:52:26 10° N 22:56:31 70° NE 22:56:31 70° NE
Cosmos 2058 4.3 23:01:15 28° NE 23:01:15 28° NE 23:03:35 10° NNE
Cosmos 1400 Rocket 3.7 23:00:15 10° N 23:03:02 43° NNE 23:03:02 43° NNE
Meteor 2-20 Rocket 4.3 22:58:17 10° N 23:04:16 68° E 23:05:05 60° SE
DNEPR-1 R/B 3.9 23:05:10 10° NW 23:08:46 57° WNW 23:08:46 57° WNW
Cosmos 1782 4.4 23:07:17 10° NNE 23:09:26 26° NE 23:09:26 26° NE
ISS -1.8 23:08:28 10° NW 23:10:32 29° NNW 23:10:32 29° NNW
Cosmos 2112 Rocket 4.1 23:06:45 10° NNW 23:12:00 63° ENE 23:12:22 61° E
Cosmos 1937 Rocket 4.3 23:14:20 35° WSW 23:15:57 46° WNW 23:20:53 10° N
Cosmos 2098 Rocket 4.3 23:16:02 10° NNW 23:18:12 29° WNW 23:18:12 29° WNW
DELTA 2 R/B (1) 3.5 23:14:31 10° W 23:19:25 67° WSW 23:19:25 67° WSW
Cosmos 2297 Rocket 2.4 23:14:55 10° NNW 23:20:30 58° ENE 23:21:13 53° E
ALOS 2 3.3 23:22:00 46° NE 23:22:00 46° NE 23:25:46 10° N
Cosmos 1680 Rocket 3.4 23:17:19 10° NNW 23:22:37 87° WSW 23:22:44 86° SSW
Cosmos 1980 Rocket 3.8 23:28:23 20° E 23:28:23 20° E 23:31:24 10° NE
Lacrosse 5 rocket 4.1 23:26:16 10° N 23:28:28 14° NNE 23:30:41 10° ENE
Cosmos 1697 Rocket 3.0 23:32:03 53° E 23:32:03 53° E 23:37:07 10° NNE
MetOp-A 4.4 23:33:09 41° NNW 23:33:09 41° NNW 23:35:45 10° NNW
Cosmos 2360 4.2 23:33:06 65° SW 23:33:52 77° WNW 23:39:35 10° NNE
Cosmos 923 Rocket 4.4 23:28:53 10° NNW 23:33:47 49° W 23:33:47 49° W
Meteor 2-3 Rocket 4.3 23:46:45 45° E 23:46:45 45° E 23:52:12 10° NNE
GEOS 3 Rocket 3.5 23:46:28 10° NE 23:51:46 88° ESE 23:51:46 88° ESE
Cosmos 1125 Rocket 4.3 23:52:54 39° ENE 23:52:54 39° ENE 23:57:01 10° NNE
Cosmos 2227 Rocket 2.8 23:47:46 10° NNW 23:53:16 48° ENE 23:54:06 45° E
